STARLINK-11396, 62015

Orbit data source: Space-Track

STARLINK-11396, 62015 is a payload satellite owned by SpaceX/Seattle (US) in LEO that was launched on Mon, 18 Nov 2024 UTC via an FALCON 9 launch vehicle from the Air Force Western Test Range (AFWTR). Payload-class satellites include a variety of spacecraft equipped with specific instruments for various scientific and technological missions. These include communications satellites like Starlink; space stations such as the ISS; scientific satellites like the Hubble; Earth observation satellites from companies like Planet Labs, Umbra, and HawkEye 360; GPS; miniature CubeSats for education and research; and military/defense satellites.

Loading next visibility...
Identifier
62015, 2024-213H
Orbit
LEO
Country
Flag of USUS
Related business
Manufacturer
SpaceX/Seattle
Mission
Operational Commercial Communications
Bus & Motor
STARLINK V2MD, Unknown motor
Mass
960 kg wet, ~910 kg dry
Launch date (UTC)
2024-11-18 (1 year ago)
Launch vehicle
FALCON 9
Launch site
Air Force Western Test Range (AFWTR)
Object type
Payload
Rocket body
Debris
Shape & HBR
Box + 2 Pan, 18.1 m
Radar Cross Section
36.964 m², Large (>1 m²)

Expand to show TLE details & history
Last TLE update: 8 hours ago

TLE from 8 hours ago
0 STARLINK-11396
1 62015U 24213H   25311.22409578  .00233635  00000-0  18794-2 0  9998
2 62015  53.1574 284.7440 0001229  52.0658 308.0471 15.69711408 55689
Epoch: 2025-11-07T05:22Z
TLE epoch observation values (Epoch: 2025-11-07T05:22:41.875Z)
Latitude
-0°
Longitude
157.39839°
Altitude
360.127 km
Speed
7.695 km/s
True Right ascension
18h 58m 58s
True Declination
0° 00' 00"
Sunlit
Object was in daylight at epoch
Visualization orbit readout
Latitude
Unknown
Longitude
Unknown
Altitude
Unknown
Speed
Unknown
Apparent Right ascension
Unknown
Apparent Declination
Unknown
Sunlit
N/A
Visualization observer readout
Local Sidereal Time
09:11:35
Azimuth
Unknown
Elevation
Unknown
Doppler factor
Unknown
Orbital elements
Apogee altitude
360.812 km
Perigee altitude
359.156 km
Semi-major axis
6,738.121 km
Eccentricity
0.00012
Inclination
53.1574°
RAAN
284.744°
Arg. of periapsis
52.0658°
True anomaly
308.03601°
Mean anomaly
308.0471°
Eccentric anomaly
308.04155°
Mean motion
3.92405 °/min
Orbital period
91.74 mins
BSTAR
0.0018794
Loading maneuver chart data...
Computing Atmospheric mass density...
Loading historical data...
Loading historical data...
Loading historical data...
Loading historical data...
Loading historical data...
Loading historical data...
Loading historical data...

Documentation

Showing up to 5 results
|